Location: ??????
(56.0120°N, 39.1740°E)
Time: 20:58:24
(UTC+00:00)

Cosmos 968 Rocket - Pass Details

Date: 14 April 2026
Orbit: 735 x 766 km, 74.0° (Epoch: 16 May)

Event Time Altitude Azimuth Distance (km) Brightness Sun altitude
Rises 22:53:55 0° 327° (NNW) 3,217 7.2 -21.7°
Reaches altitude 10° 22:56:28 10° 319° (NW) 2,293 6.2 -21.5°
Enters shadow 23:01:03 33° 257° (WSW) 1,257 4.3 -21.2°
